Time,TemperatureF,DewpointF,PressureIn,WindDirection,WindDirectionDegrees,WindSpeedMPH,WindSpeedGustMPH,Humidity,HourlyPrecipIn,Conditions,Clouds,dailyrainin,SoftwareType,DateUTC
2013-01-21 00:00:00,27.0,13.0,30.23,North,0,9.0,13.0,56,-99.99,,,-99.99,,2013-01-21 06:00:00,
2013-01-21 00:03:00,27.0,13.0,30.24,NNW,340,12.0,16.0,54,-99.99,,,-99.99,,2013-01-21 06:03:00,
2013-01-21 00:12:00,27.0,13.0,30.24,North,0,11.0,17.0,54,-99.99,,,-99.99,,2013-01-21 06:12:00,
2013-01-21 00:23:00,27.0,13.0,30.24,North,0,11.0,17.0,54,-99.99,,,-99.99,,2013-01-21 06:23:00,
2013-01-21 00:33:00,27.0,13.0,30.23,North,0,10.0,15.0,55,-99.99,,,-99.99,,2013-01-21 06:33:00,
2013-01-21 00:43:00,27.0,13.0,30.23,North,0,9.0,13.0,56,-99.99,,,-99.99,,2013-01-21 06:43:00,
2013-01-21 00:52:00,27.0,13.0,30.23,North,0,9.0,13.0,56,-99.99,,,-99.99,,2013-01-21 06:52:00,
2013-01-21 01:13:00,26.0,13.0,30.23,North,355,9.0,13.0,58,-99.99,,,-99.99,,2013-01-21 07:13:00,
2013-01-21 01:22:00,26.0,13.0,30.23,North,355,9.0,13.0,58,-99.99,,,-99.99,,2013-01-21 07:22:00,
2013-01-21 01:33:00,25.0,13.0,30.24,NNW,345,8.0,14.0,59,-99.99,,,-99.99,,2013-01-21 07:33:00,
2013-01-21 01:42:00,25.0,13.0,30.24,NNW,335,7.0,11.0,61,-99.99,,,-99.99,,2013-01-21 07:42:00,
2013-01-21 01:52:00,24.0,13.0,30.25,NNW,340,8.0,11.0,62,-99.99,,,-99.99,,2013-01-21 07:52:00,
2013-01-21 02:03:00,24.0,13.0,30.25,NNW,340,8.0,11.0,62,-99.99,,,-99.99,,2013-01-21 08:03:00,
2013-01-21 02:13:00,24.0,12.0,30.25,NNW,345,8.0,14.0,61,-99.99,,,-99.99,,2013-01-21 08:13:00,
2013-01-21 02:23:00,24.0,12.0,30.25,NNW,345,8.0,14.0,61,-99.99,,,-99.99,,2013-01-21 08:23:00,
2013-01-21 02:32:00,24.0,12.0,30.26,NNW,345,11.0,14.0,61,-99.99,,,-99.99,,2013-01-21 08:32:00,
2013-01-21 02:42:00,23.0,12.0,30.26,NNW,340,8.0,14.0,62,-99.99,,,-99.99,,2013-01-21 08:42:00,
2013-01-21 02:53:00,23.0,12.0,30.26,NNW,340,8.0,14.0,62,-99.99,,,-99.99,,2013-01-21 08:53:00,
2013-01-21 03:03:00,23.0,12.0,30.26,NNW,335,8.0,12.0,62,-99.99,,,-99.99,,2013-01-21 09:03:00,
2013-01-21 03:12:00,23.0,12.0,30.26,NNW,345,9.0,12.0,63,-99.99,,,-99.99,,2013-01-21 09:12:00,
2013-01-21 03:23:00,23.0,12.0,30.26,NNW,345,9.0,12.0,63,-99.99,,,-99.99,,2013-01-21 09:23:00,
2013-01-21 03:33:00,23.0,12.0,30.27,NNW,335,10.0,13.0,64,-99.99,,,-99.99,,2013-01-21 09:33:00,
2013-01-21 03:42:00,22.0,12.0,30.27,NNW,335,10.0,13.0,63,-99.99,,,-99.99,,2013-01-21 09:42:00,
2013-01-21 03:52:00,22.0,10.0,30.27,North,0,10.0,15.0,60,-99.99,,,-99.99,,2013-01-21 09:52:00,
2013-01-21 04:02:00,22.0,10.0,30.27,North,0,10.0,15.0,60,-99.99,,,-99.99,,2013-01-21 10:02:00,
2013-01-21 04:12:00,22.0,10.0,30.28,NNW,345,8.0,14.0,60,-99.99,,,-99.99,,2013-01-21 10:12:00,
2013-01-21 04:22:00,22.0,10.0,30.28,NNW,345,8.0,14.0,60,-99.99,,,-99.99,,2013-01-21 10:22:00,
2013-01-21 04:32:00,22.0,10.0,30.28,NNW,345,12.0,18.0,59,-99.99,,,-99.99,,2013-01-21 10:32:00,
2013-01-21 04:43:00,22.0,10.0,30.27,NNW,335,11.0,15.0,60,-99.99,,,-99.99,,2013-01-21 10:43:00,
2013-01-21 04:52:00,22.0,10.0,30.27,NNW,335,11.0,15.0,60,-99.99,,,-99.99,,2013-01-21 10:52:00,
2013-01-21 05:03:00,22.0,10.0,30.27,NNW,330,8.0,12.0,60,-99.99,,,-99.99,,2013-01-21 11:03:00,
2013-01-21 05:13:00,22.0,10.0,30.27,NNW,340,10.0,13.0,60,-99.99,,,-99.99,,2013-01-21 11:13:00,
2013-01-21 05:23:00,22.0,10.0,30.27,NNW,340,10.0,13.0,60,-99.99,,,-99.99,,2013-01-21 11:23:00,
2013-01-21 05:33:00,21.0,10.0,30.27,North,0,11.0,15.0,60,-99.99,,,-99.99,,2013-01-21 11:33:00,
2013-01-21 05:43:00,21.0,10.0,30.29,North,350,9.0,13.0,61,-99.99,,,-99.99,,2013-01-21 11:43:00,
2013-01-21 05:53:00,21.0,10.0,30.29,North,350,9.0,13.0,61,-99.99,,,-99.99,,2013-01-21 11:53:00,
2013-01-21 06:02:00,21.0,10.0,30.29,North,355,9.0,12.0,62,-99.99,,,-99.99,,2013-01-21 12:02:00,
2013-01-21 06:12:00,20.0,10.0,30.29,North,350,8.0,13.0,63,-99.99,,,-99.99,,2013-01-21 12:12:00,
2013-01-21 06:22:00,20.0,10.0,30.29,North,350,8.0,13.0,63,-99.99,,,-99.99,,2013-01-21 12:22:00,
2013-01-21 06:33:00,20.0,9.0,30.29,North,355,10.0,13.0,63,-99.99,,,-99.99,,2013-01-21 12:33:00,
2013-01-21 06:42:00,19.0,9.0,30.30,North,0,8.0,11.0,63,-99.99,,,-99.99,,2013-01-21 12:42:00,
2013-01-21 06:52:00,19.0,9.0,30.30,North,0,8.0,11.0,63,-99.99,,,-99.99,,2013-01-21 12:52:00,
2013-01-21 07:02:00,19.0,9.0,30.30,North,0,8.0,11.0,64,-99.99,,,-99.99,,2013-01-21 13:02:00,
2013-01-21 07:13:00,19.0,9.0,30.30,NNW,345,9.0,11.0,64,-99.99,,,-99.99,,2013-01-21 13:13:00,
2013-01-21 07:23:00,19.0,9.0,30.30,NNW,345,9.0,11.0,64,-99.99,,,-99.99,,2013-01-21 13:23:00,
2013-01-21 07:33:00,19.0,9.0,30.30,NNW,330,5.0,7.0,65,-99.99,,,-99.99,,2013-01-21 13:33:00,
2013-01-21 07:43:00,18.0,9.0,30.31,NNW,330,7.0,8.0,66,-99.99,,,-99.99,,2013-01-21 13:43:00,
2013-01-21 07:53:00,18.0,9.0,30.31,NNW,330,7.0,8.0,66,-99.99,,,-99.99,,2013-01-21 13:53:00,
2013-01-21 08:03:00,19.0,9.0,30.31,NNW,340,9.0,12.0,65,-99.99,,,-99.99,,2013-01-21 14:03:00,
2013-01-21 08:12:00,19.0,9.0,30.30,NNW,340,9.0,12.0,65,-99.99,,,-99.99,,2013-01-21 14:12:00,
2013-01-21 08:23:00,19.0,9.0,30.30,NNW,340,9.0,12.0,65,-99.99,,,-99.99,,2013-01-21 14:23:00,
2013-01-21 08:32:00,19.0,9.0,30.31,North,355,8.0,12.0,64,-99.99,,,-99.99,,2013-01-21 14:32:00,
2013-01-21 08:43:00,19.0,9.0,30.31,North,350,9.0,12.0,64,-99.99,,,-99.99,,2013-01-21 14:43:00,
2013-01-21 08:53:00,19.0,9.0,30.31,North,350,9.0,12.0,64,-99.99,,,-99.99,,2013-01-21 14:53:00,
2013-01-21 09:03:00,19.0,9.0,30.31,North,0,7.0,12.0,62,-99.99,,,-99.99,,2013-01-21 15:03:00,
2013-01-21 09:13:00,20.0,9.0,30.31,North,355,7.0,10.0,62,-99.99,,,-99.99,,2013-01-21 15:13:00,
2013-01-21 09:23:00,20.0,9.0,30.31,North,355,7.0,10.0,62,-99.99,,,-99.99,,2013-01-21 15:23:00,
2013-01-21 09:33:00,21.0,8.0,30.31,North,350,7.0,9.0,58,-99.99,,,-99.99,,2013-01-21 15:33:00,
2013-01-21 09:43:00,21.0,9.0,30.32,North,350,7.0,11.0,57,-99.99,,,-99.99,,2013-01-21 15:43:00,
2013-01-21 09:53:00,21.0,9.0,30.32,North,350,7.0,11.0,57,-99.99,,,-99.99,,2013-01-21 15:53:00,
2013-01-21 10:00:00,24.0,7.0,30.31,NNW,335,10.0,13.0,48,-99.99,,,-99.99,,2013-01-21 16:00:00,
2013-01-21 10:03:00,22.0,8.0,30.31,NNW,345,6.0,10.0,53,-99.99,,,-99.99,,2013-01-21 16:03:00,
2013-01-21 10:12:00,23.0,8.0,30.31,NNW,345,5.0,10.0,52,-99.99,,,-99.99,,2013-01-21 16:12:00,
2013-01-21 10:23:00,23.0,8.0,30.31,NNW,345,5.0,10.0,52,-99.99,,,-99.99,,2013-01-21 16:23:00,
2013-01-21 10:33:00,23.0,7.0,30.31,NNW,345,7.0,13.0,49,-99.99,,,-99.99,,2013-01-21 16:33:00,
2013-01-21 10:43:00,24.0,7.0,30.31,NNW,335,10.0,13.0,48,-99.99,,,-99.99,,2013-01-21 16:43:00,
2013-01-21 10:53:00,24.0,7.0,30.31,NNW,335,10.0,13.0,48,-99.99,,,-99.99,,2013-01-21 16:53:00,
2013-01-21 11:12:00,25.0,7.0,30.32,North,350,12.0,15.0,46,-99.99,,,-99.99,,2013-01-21 17:12:00,
2013-01-21 11:23:00,25.0,7.0,30.32,North,350,12.0,15.0,46,-99.99,,,-99.99,,2013-01-21 17:23:00,
2013-01-21 11:33:00,26.0,8.0,30.32,NW,310,11.0,14.0,45,-99.99,,,-99.99,,2013-01-21 17:33:00,
2013-01-21 11:43:00,27.0,8.0,30.33,WNW,300,13.0,17.0,45,-99.99,,,-99.99,,2013-01-21 17:43:00,
2013-01-21 11:53:00,27.0,8.0,30.33,WNW,300,13.0,17.0,45,-99.99,,,-99.99,,2013-01-21 17:53:00,
2013-01-21 12:03:00,28.0,9.0,30.33,NW,320,14.0,20.0,44,-99.99,,,-99.99,,2013-01-21 18:03:00,
2013-01-21 12:12:00,27.0,8.0,30.33,NW,325,17.0,21.0,44,-99.99,,,-99.99,,2013-01-21 18:12:00,
2013-01-21 12:22:00,27.0,8.0,30.33,NW,325,17.0,21.0,44,-99.99,,,-99.99,,2013-01-21 18:22:00,
2013-01-21 12:33:00,28.0,9.0,30.31,North,350,15.0,23.0,44,-99.99,,,-99.99,,2013-01-21 18:33:00,
2013-01-21 12:42:00,28.0,8.0,30.32,NNW,330,14.0,23.0,43,-99.99,,,-99.99,,2013-01-21 18:42:00,
2013-01-21 12:52:00,28.0,8.0,30.32,NNW,330,14.0,23.0,43,-99.99,,,-99.99,,2013-01-21 18:52:00,
2013-01-21 13:03:00,28.0,9.0,30.30,NW,315,10.0,17.0,43,-99.99,,,-99.99,,2013-01-21 19:03:00,
2013-01-21 13:12:00,29.0,9.0,30.29,NNW,345,12.0,17.0,43,-99.99,,,-99.99,,2013-01-21 19:12:00,
2013-01-21 13:22:00,29.0,9.0,30.29,NNW,345,12.0,17.0,43,-99.99,,,-99.99,,2013-01-21 19:22:00,
2013-01-21 13:33:00,31.0,11.0,30.29,NNW,345,8.0,18.0,43,-99.99,,,-99.99,,2013-01-21 19:33:00,
2013-01-21 13:43:00,29.0,10.0,30.29,NW,320,11.0,17.0,43,-99.99,,,-99.99,,2013-01-21 19:43:00,
2013-01-21 13:53:00,29.0,10.0,30.29,NW,320,11.0,17.0,43,-99.99,,,-99.99,,2013-01-21 19:53:00,
2013-01-21 14:03:00,30.0,10.0,30.29,NNW,335,9.0,15.0,43,-99.99,,,-99.99,,2013-01-21 20:03:00,
2013-01-21 14:12:00,31.0,11.0,30.29,NW,325,9.0,15.0,43,-99.99,,,-99.99,,2013-01-21 20:12:00,
2013-01-21 14:23:00,31.0,11.0,30.29,NW,325,9.0,15.0,43,-99.99,,,-99.99,,2013-01-21 20:23:00,
2013-01-21 14:33:00,31.0,12.0,30.28,NNW,335,11.0,19.0,44,-99.99,,,-99.99,,2013-01-21 20:33:00,
2013-01-21 14:43:00,30.0,10.0,30.29,NW,310,15.0,21.0,43,-99.99,,,-99.99,,2013-01-21 20:43:00,
2013-01-21 14:53:00,30.0,10.0,30.29,NW,310,15.0,21.0,43,-99.99,,,-99.99,,2013-01-21 20:53:00,
2013-01-21 15:00:00,30.0,11.0,30.28,NNW,330,15.0,20.0,44,-99.99,,,-99.99,,2013-01-21 21:00:00,
2013-01-21 15:04:00,31.0,11.0,30.29,NW,320,13.0,19.0,44,-99.99,,,-99.99,,2013-01-21 21:04:00,
2013-01-21 15:12:00,30.0,11.0,30.29,NW,320,13.0,19.0,44,-99.99,,,-99.99,,2013-01-21 21:12:00,
2013-01-21 15:23:00,30.0,11.0,30.29,NW,320,13.0,19.0,44,-99.99,,,-99.99,,2013-01-21 21:23:00,
2013-01-21 15:33:00,30.0,11.0,30.28,WNW,290,9.0,17.0,44,-99.99,,,-99.99,,2013-01-21 21:33:00,
2013-01-21 15:43:00,30.0,11.0,30.28,NNW,330,15.0,20.0,44,-99.99,,,-99.99,,2013-01-21 21:43:00,
2013-01-21 15:53:00,30.0,11.0,30.28,NNW,330,15.0,20.0,44,-99.99,,,-99.99,,2013-01-21 21:53:00,
2013-01-21 16:12:00,29.0,10.0,30.28,NNW,330,18.0,22.0,44,-99.99,,,-99.99,,2013-01-21 22:12:00,
2013-01-21 16:23:00,29.0,10.0,30.28,NNW,330,18.0,22.0,44,-99.99,,,-99.99,,2013-01-21 22:23:00,
2013-01-21 16:33:00,30.0,11.0,30.28,NNW,330,12.0,18.0,45,-99.99,,,-99.99,,2013-01-21 22:33:00,
2013-01-21 16:43:00,29.0,11.0,30.28,NW,325,12.0,16.0,45,-99.99,,,-99.99,,2013-01-21 22:43:00,
2013-01-21 16:52:00,30.0,12.0,30.28,NW,320,7.0,18.0,47,-99.99,,,-99.99,,2013-01-21 22:52:00,
2013-01-21 17:03:00,30.0,12.0,30.28,NW,320,7.0,18.0,47,-99.99,,,-99.99,,2013-01-21 23:03:00,
2013-01-21 17:13:00,29.0,11.0,30.27,NNW,335,12.0,18.0,46,-99.99,,,-99.99,,2013-01-21 23:13:00,
2013-01-21 17:23:00,29.0,11.0,30.27,NNW,335,12.0,18.0,46,-99.99,,,-99.99,,2013-01-21 23:23:00,
2013-01-21 17:33:00,29.0,11.0,30.26,NNW,345,7.0,12.0,46,-99.99,,,-99.99,,2013-01-21 23:33:00,
2013-01-21 17:42:00,28.0,11.0,30.27,NNW,345,13.0,17.0,47,-99.99,,,-99.99,,2013-01-21 23:42:00,
2013-01-21 17:53:00,28.0,11.0,30.27,NNW,345,13.0,17.0,47,-99.99,,,-99.99,,2013-01-21 23:53:00,
2013-01-21 18:02:00,27.0,10.0,30.26,North,350,7.0,12.0,48,-99.99,,,-99.99,,2013-01-22 00:02:00,
2013-01-21 18:12:00,27.0,10.0,30.26,NNW,345,6.0,12.0,49,-99.99,,,-99.99,,2013-01-22 00:12:00,
2013-01-21 18:22:00,27.0,10.0,30.26,NNW,345,6.0,12.0,49,-99.99,,,-99.99,,2013-01-22 00:22:00,
2013-01-21 18:33:00,26.0,10.0,30.26,North,0,9.0,14.0,50,-99.99,,,-99.99,,2013-01-22 00:33:00,
2013-01-21 18:43:00,25.0,10.0,30.26,North,350,5.0,11.0,51,-99.99,,,-99.99,,2013-01-22 00:43:00,
2013-01-21 18:53:00,25.0,10.0,30.26,North,350,5.0,11.0,51,-99.99,,,-99.99,,2013-01-22 00:53:00,
2013-01-21 19:02:00,24.0,9.0,30.26,NNW,340,6.0,10.0,51,-99.99,,,-99.99,,2013-01-22 01:02:00,
2013-01-21 19:12:00,24.0,9.0,30.26,NNW,335,6.0,9.0,51,-99.99,,,-99.99,,2013-01-22 01:12:00,
2013-01-21 19:23:00,24.0,9.0,30.26,NNW,335,6.0,9.0,51,-99.99,,,-99.99,,2013-01-22 01:23:00,
2013-01-21 19:32:00,24.0,9.0,30.26,NNW,335,3.0,7.0,52,-99.99,,,-99.99,,2013-01-22 01:32:00,
2013-01-21 19:42:00,24.0,9.0,30.26,NW,320,3.0,5.0,53,-99.99,,,-99.99,,2013-01-22 01:42:00,
2013-01-21 19:52:00,24.0,9.0,30.26,NW,320,3.0,5.0,53,-99.99,,,-99.99,,2013-01-22 01:52:00,
2013-01-21 20:02:00,23.0,9.0,30.26,NNW,335,6.0,7.0,54,-99.99,,,-99.99,,2013-01-22 02:02:00,
2013-01-21 20:12:00,22.0,9.0,30.26,NNW,340,4.0,7.0,56,-99.99,,,-99.99,,2013-01-22 02:12:00,
2013-01-21 20:22:00,22.0,9.0,30.26,NNW,340,4.0,7.0,56,-99.99,,,-99.99,,2013-01-22 02:22:00,
2013-01-21 20:32:00,22.0,9.0,30.27,NNW,335,4.0,6.0,56,-99.99,,,-99.99,,2013-01-22 02:32:00,
2013-01-21 20:43:00,22.0,9.0,30.27,North,0,1.0,5.0,57,-99.99,,,-99.99,,2013-01-22 02:43:00,
2013-01-21 20:53:00,22.0,9.0,30.27,North,0,1.0,5.0,57,-99.99,,,-99.99,,2013-01-22 02:53:00,
2013-01-21 21:02:00,22.0,10.0,30.27,NW,325,1.0,3.0,57,-99.99,,,-99.99,,2013-01-22 03:02:00,
2013-01-21 21:12:00,22.0,9.0,30.27,NW,320,2.0,3.0,57,-99.99,,,-99.99,,2013-01-22 03:12:00,
2013-01-21 21:22:00,22.0,9.0,30.27,NW,320,2.0,3.0,57,-99.99,,,-99.99,,2013-01-22 03:22:00,
2013-01-21 21:32:00,21.0,10.0,30.27,North,0,3.0,4.0,60,-99.99,,,-99.99,,2013-01-22 03:32:00,
2013-01-21 21:42:00,21.0,9.0,30.28,North,0,3.0,4.0,60,-99.99,,,-99.99,,2013-01-22 03:42:00,
2013-01-21 21:52:00,21.0,9.0,30.28,North,0,3.0,4.0,60,-99.99,,,-99.99,,2013-01-22 03:52:00,
2013-01-21 22:02:00,21.0,9.0,30.27,NE,50,2.0,3.0,58,-99.99,,,-99.99,,2013-01-22 04:02:00,
2013-01-21 22:12:00,21.0,9.0,30.27,ENE,60,2.0,4.0,59,-99.99,,,-99.99,,2013-01-22 04:12:00,
2013-01-21 22:22:00,21.0,9.0,30.27,ENE,60,2.0,4.0,59,-99.99,,,-99.99,,2013-01-22 04:22:00,
2013-01-21 22:32:00,21.0,9.0,30.27,East,95,2.0,3.0,59,-99.99,,,-99.99,,2013-01-22 04:32:00,
2013-01-21 22:42:00,21.0,9.0,30.27,East,90,1.0,3.0,59,-99.99,,,-99.99,,2013-01-22 04:42:00,
2013-01-21 22:52:00,21.0,9.0,30.27,East,85,1.0,4.0,58,-99.99,,,-99.99,,2013-01-22 04:52:00,
2013-01-21 23:04:00,21.0,9.0,30.27,East,85,1.0,4.0,58,-99.99,,,-99.99,,2013-01-22 05:04:00,
2013-01-21 23:12:00,21.0,9.0,30.27,East,90,1.0,3.0,57,-99.99,,,-99.99,,2013-01-22 05:12:00,
2013-01-21 23:22:00,21.0,9.0,30.27,East,90,1.0,3.0,57,-99.99,,,-99.99,,2013-01-22 05:22:00,
2013-01-21 23:32:00,22.0,9.0,30.28,North,10,1.0,3.0,57,-99.99,,,-99.99,,2013-01-22 05:32:00,
2013-01-21 23:42:00,22.0,9.0,30.27,North,0,3.0,4.0,58,-99.99,,,-99.99,,2013-01-22 05:42:00,
2013-01-21 23:52:00,22.0,9.0,30.27,North,0,3.0,4.0,58,-99.99,,,-99.99,,2013-01-22 05:52:00,